Willimantic, CT

12:27 PM EDT on October 18, 2017 (GMT -0400)
Windham

Weather History for KIJD - November, 2011

Change the Weather History Date:

Tuesday, November 29, 2011

  Actual Average Record
Temperature  
Mean Temperature 56 °F -  
Max Temperature 66 °F 50 °F 68 °F (1990)
Min Temperature 46 °F 28 °F 12 °F (2002)
Degree Days  
Heating Degree Days 9    
Growing Degree Days 6 (Base 50)    
Moisture  
Dew Point 57 °F    
Average Humidity 88    
Maximum Humidity 97    
Minimum Humidity 65    
Precipitation  
Precipitation 0.82 in - - ()
Sea Level Pressure  
Sea Level Pressure 29.87 in    
Wind  
Wind Speed 5 mph (SSE)    
Max Wind Speed 17 mph    
Max Gust Speed 34 mph    
Visibility 7 miles    
Events Rain    
Averages and records for this station are not official NWS values.
T = Trace of Precipitation, MM = Missing Value Source: NWS Daily Summary

Daily Weather History Graph

Daily Weather History Graph

Search for Another Location

Airport or City:

Trip Planner

Search our weather history database for the weather conditions in past years. The results will help you decide how hot, cold, wet, or windy it might be!

Date:

Astronomy

Nov. 29, 2011 Rise Set
Actual Time 6:53 AM EST 4:19 PM EST
Civil Twilight 6:23 AM EST 4:50 PM EST
Nautical Twilight 5:48 AM EST 5:25 PM EST
Astronomical Twilight 5:15 AM EST 5:58 PM EST
Moon 10:37 AM EST (11/29) 9:11 PM EST (11/29)
Length of Visible Light 10h 27m
Length of Day
9h 25m
Waxing Crescent, 24% of the Moon is Illuminated
Nov 29
Waxing Crescent
Dec 2
First Quarter
Dec 10
Full
Dec 17
Last Quarter
Dec 24
New

Hourly Weather History & Observations

Time (EST) Temp. Dew Point Humidity Pressure Visibility Wind Dir Wind Speed Gust Speed Precip Events Conditions
12:52 AM 46.9 °F 45.0 °F 93% 30.13 in 6.0 mi Calm Calm - N/A   Scattered Clouds
2:52 AM 46.9 °F 46.0 °F 97% 30.12 in 10.0 mi Calm Calm - N/A   Overcast
3:52 AM 46.9 °F 46.0 °F 97% 30.11 in 9.0 mi Calm Calm - N/A   Overcast
4:52 AM 46.0 °F 45.0 °F 96% 30.10 in 7.0 mi Calm Calm - N/A   Overcast
5:52 AM 46.9 °F 46.0 °F 97% 30.10 in 9.0 mi Calm Calm - N/A   Overcast
6:52 AM 48.0 °F 46.0 °F 93% 30.09 in 10.0 mi Calm Calm - N/A   Overcast
7:52 AM 48.9 °F 46.9 °F 93% 30.09 in 10.0 mi Calm Calm - N/A   Overcast
8:52 AM 51.1 °F 48.9 °F 92% 30.08 in 10.0 mi Calm Calm - N/A   Overcast
9:52 AM 57.9 °F 53.1 °F 84% 30.07 in 10.0 mi Calm Calm - N/A   Overcast
10:52 AM 61.0 °F 55.9 °F 83% 30.05 in 10.0 mi Calm Calm - N/A   Overcast
11:52 AM 64.9 °F 57.0 °F 75% 30.02 in 10.0 mi SSE 8.1 mph - N/A   Overcast
12:42 PM 64.4 °F 57.2 °F 77% 30.00 in 10.0 mi SSE 6.9 mph - N/A   Overcast
12:52 PM 66.0 °F 57.0 °F 73% 29.99 in 10.0 mi SSE 11.5 mph - N/A   Overcast
1:34 PM 66.2 °F 55.4 °F 68% 29.96 in 10.0 mi SE 8.1 mph - N/A   Mostly Cloudy
1:52 PM 66.0 °F 54.0 °F 65% 29.95 in 10.0 mi Variable 6.9 mph - N/A   Mostly Cloudy
2:52 PM 66.0 °F 54.0 °F 65% 29.93 in 10.0 mi Variable 3.5 mph - N/A   Overcast
3:52 PM 66.0 °F 55.9 °F 70% 29.91 in 10.0 mi SSE 5.8 mph - N/A   Mostly Cloudy
4:52 PM 64.9 °F 57.0 °F 75% 29.90 in 10.0 mi SSE 5.8 mph 16.1 mph N/A   Overcast
5:10 PM 64.4 °F 57.2 °F 77% 29.90 in 10.0 mi SSE 6.9 mph - 0.00 in Rain Light Rain
5:52 PM 63.0 °F 60.1 °F 90% 29.89 in 3.0 mi SSE 8.1 mph 20.7 mph 0.02 in Rain Rain
6:10 PM 62.6 °F 60.8 °F 94% 29.87 in 10.0 mi SE 3.5 mph - 0.01 in   Overcast
6:52 PM 63.0 °F 60.1 °F 90% 29.85 in 10.0 mi SE 8.1 mph - 0.01 in   Overcast
7:17 PM 62.6 °F 60.8 °F 94% 29.84 in 10.0 mi SSE 8.1 mph 16.1 mph N/A   Overcast
7:49 PM 62.6 °F 60.8 °F 94% 29.83 in 7.0 mi SSE 8.1 mph - 0.00 in Rain Light Rain
7:52 PM 63.0 °F 60.1 °F 90% 29.83 in 8.0 mi SSE 8.1 mph - 0.00 in Rain Light Rain
8:29 PM 62.6 °F 60.8 °F 94% 29.79 in 2.5 mi SSE 6.9 mph - 0.02 in Rain Light Rain
8:36 PM 62.6 °F 60.8 °F 94% 29.79 in 3.0 mi SSE 5.8 mph - 0.03 in Rain Light Rain
8:52 PM 62.1 °F 60.1 °F 93% 29.77 in 3.0 mi Variable 6.9 mph - 0.05 in Rain Light Rain
9:02 PM 62.6 °F 60.8 °F 94% 29.77 in 2.5 mi SSE 8.1 mph - 0.02 in Rain Light Rain
9:07 PM 62.6 °F 60.8 °F 94% 29.77 in 2.5 mi Variable 6.9 mph - 0.03 in Rain Rain
9:29 PM 62.6 °F 60.8 °F 94% 29.76 in 4.0 mi SSE 8.1 mph - 0.12 in Rain Rain
9:40 PM 62.6 °F 60.8 °F 94% 29.74 in 5.0 mi South 11.5 mph 20.7 mph 0.15 in Rain Rain
9:52 PM 63.0 °F 60.1 °F 90% 29.74 in 6.0 mi South 9.2 mph 21.9 mph 0.18 in Rain Rain
10:24 PM 62.6 °F 60.8 °F 94% 29.71 in 2.5 mi South 12.7 mph 24.2 mph 0.13 in Rain Heavy Rain
10:44 PM 62.6 °F 60.8 °F 94% 29.69 in 2.5 mi SSE 12.7 mph 26.5 mph 0.23 in Rain Heavy Rain
10:48 PM 62.6 °F 60.8 °F 94% 29.68 in 1.8 mi SSE 10.4 mph 26.5 mph 0.28 in Rain Heavy Rain
10:52 PM 63.0 °F 61.0 °F 93% 29.67 in 2.0 mi SSE 15.0 mph 24.2 mph 0.30 in Rain Heavy Rain
11:07 PM 62.6 °F 60.8 °F 94% 29.66 in 3.0 mi South 15.0 mph 28.8 mph 0.09 in Rain Rain
11:14 PM 62.6 °F 60.8 °F 94% 29.66 in 3.0 mi South 17.3 mph 34.5 mph 0.10 in Rain Rain
11:33 PM 62.6 °F 60.8 °F 94% 29.66 in 3.0 mi SSW 17.3 mph 31.1 mph 0.15 in Rain Rain
11:52 PM 63.0 °F 61.0 °F 93% 29.64 in 4.0 mi South 10.4 mph 32.2 mph 0.26 in Rain Heavy Rain
11:59 PM 62.6 °F 60.8 °F 94% 29.64 in 4.0 mi South 10.4 mph - 0.04 in Rain Heavy Rain